Regional Weather Roundup
Issued by NWS Jackson, KY

Home | Current Version | Previous Version | Text Only | Print | Product List | Glossary Off
Versions: 1 2 3 4 5 6 7 8 9 10 11 12 13 14 15 16 17 18 19 20 21 22 23 24 25 26 27 28 29 30 31 32 33 34 35 36 37 38 39 40 41 42 43 44 45 46 47 48 49 50

000
ASUS43 KJKL 281410
RWRJKL

EAST KENTUCKY HOURLY WEATHER ROUNDUP
NATIONAL WEATHER SERVICE JACKSON KY
1000 AM EDT SAT MAY 28 2016

NOTE: "FAIR" INDICATES FEW OR NO CLOUDS BELOW 12,000 FEET WITH
NO SIGNIFICANT WEATHER AND/OR OBSTRUCTIONS TO VISIBILITY.

* THESE REPORTS ARE NOT UNDER NWS QUALITY CONTROL AND MAY NOT
  REPORT WEATHER SUCH AS PRECIPITATION AND FOG.

KYZ079-080-083-085-087-088-110-112-115-119-120-281500
...EASTERN KENTUCKY...

CITY           SKY/WX    TMP DP  RH WIND       PRES   REMARKS
JACKSON        MOSUNNY   73  65  75 CALM      30.17R
LONDON         CLOUDY    74  63  68 S5        30.16R
SOMERSET*      PTSUNNY   73  63  68 S7        30.16R
MONTICELLO*    MOSUNNY   76  64  66 VRB5      30.16R
WILLIAMSBURG*  SUNNY     73  66  78 SE3       30.17R
MIDDLESBORO*   SUNNY     68  65  91 CALM      30.18R
HARLAN APT*      N/A     72  63  73 CALM      30.19R
HAZARD APT*    SUNNY     75  72  88 CALM      30.17R
BLACK MTN*       N/A     68  59  73 SW2         N/A
PIKE CO APT*     N/A     73  65  75 SE6       30.18S
BIG SANDY APT* PTSUNNY   76  65  67 S3        30.17S
MOREHEAD APT*  MOSUNNY   77  66  69 S8        30.16R
ASHLAND*       MOSUNNY   75  68  78 CALM      30.12S
$$

KYZ035-036-041-042-044-050-067-078-099-281500
...CENTRAL KENTUCKY...

CITY           SKY/WX    TMP DP  RH WIND       PRES   REMARKS
MT STERLING*   PTSUNNY   73  64  73 SW5       30.16R
FLEMING/MASON* PTSUNNY  N/A N/A N/A SW8       30.15R
DANVILLE*      MOSUNNY   77  64  65 SW9       30.15R
RICHMOND*      PTSUNNY   75  63  64 S13       30.14R
LEXINGTON      CLOUDY    75  64  68 S10       30.13R
FRANKFORT      CLOUDY    75  65  70 S5        30.10R
LOUISVILLE     CLOUDY    74  67  78 S8        30.08R
LEBANON*         N/A     73  64  73 S7        30.12R
GLASGOW*       CLOUDY    74  65  73 S5        30.11R
BOWLING GREEN  CLOUDY    76  66  71 S9        30.09R
$$

KYZ091>093-OHZ055-061-077-WVZ005-015-034-035-042-281500
...SOUTHERN OHIO/WEST VIRGINIA...

CITY           SKY/WX    TMP DP  RH WIND       PRES   REMARKS
COVINGTON      CLOUDY    75  67  76 S8        30.10R
COLUMBUS       CLOUDY    76  65  68 S9        30.11R
DAYTON         PTSUNNY   76  66  71 SW10      30.11R
WILMINGTON     MOSUNNY   74  66  76 S8        30.12R
HUNTINGTON     PTSUNNY   77  66  68 VRB5      30.15R
CHARLESTON     PTSUNNY   77  63  61 S5        30.16R
PINEVILLE*       N/A     74  63  68 MISG      30.26R
BECKLEY          N/A     74  58  57 VRB6      30.25R
BLUEFIELD      PTSUNNY   71  55  56 MISG      30.27R
LOGAN CO APT*    N/A     75  64  69 CALM      30.19R
$$

VAZ002-007-008-TNZ017-027-036-066-071-281500
...SOUTHWEST VIRGINIA/EAST TENNESSEE...

CITY           SKY/WX    TMP DP  RH WIND       PRES   REMARKS
WISE*            N/A     72  54  53 S7        30.25R
JONESVILLE*      N/A     75  63  64 CALM      30.21R
ABINGDON*        N/A     75  62  64 CALM      30.23R
BRISTOL        SUNNY     74  63  68 CALM      30.20R
SEVIERVILLE*   MOSUNNY   70  64  83 CALM      30.17R
KNOXVILLE      PTSUNNY   70  67  90 CALM      30.17R
OAK RIDGE      CLOUDY    72  66  81 CALM      30.19R
CROSSVILLE     CLOUDY    72  61  68 VRB6      30.19R
NASHVILLE      CLOUDY    76  62  62 S6        30.10R
$$

...KEY TO REMARKS...
VSB - VISIBILITY IN MILES
WCI - WIND CHILL INDEX
HX  - HEAT INDEX

$$



USA.gov is the U.S. government's official web portal to all federal, state and local government web resources and services.